This is the latest recevied weather packets stored in our database for station/object TA3MHA. If no packets are shown the sender has not sent any weather packets the latest 10 day(s).
| Time | Temp. | Humidity | Pressure | Rain* | Wind** | Luminosity | Snow |
|---|---|---|---|---|---|---|---|
| 1777478100 | 20° C | 43% | - | 0 mm | - | 82 W/m² | - |
| 1777477800 | 20.56° C | 42% | - | 0 mm | - | 91 W/m² | - |
| 1777477500 | 20.56° C | 42% | - | 0 mm | - | 101 W/m² | - |
| 1777477200 | 21.11° C | 42% | - | 0 mm | - | 112 W/m² | - |
| 1777476900 | 21.11° C | 40% | - | 0 mm | - | 124 W/m² | - |
| 1777476600 | 21.11° C | 40% | - | 0 mm | - | 138 W/m² | - |
| 1777476300 | 21.67° C | 40% | - | 0 mm | - | 149 W/m² | - |
| 1777476001 | 21.67° C | 39% | - | 0 mm | - | 161 W/m² | - |
| 1777475701 | 21.67° C | 39% | - | 0 mm | - | 172 W/m² | - |
| 1777475401 | 21.67° C | 39% | - | 0 mm | - | 186 W/m² | - |
| 1777475101 | 21.67° C | 38% | - | 0 mm | - | 199 W/m² | - |
| 1777474800 | 21.67° C | 37% | - | 0 mm | - | 214 W/m² | - |
| 1777474501 | 21.67° C | 38% | - | 0 mm | - | 228 W/m² | - |
| 1777474201 | 22.22° C | 36% | - | 0 mm | - | 241 W/m² | - |
| 1777473900 | 22.22° C | 37% | - | 0 mm | - | 257 W/m² | - |
| 1777473600 | 22.22° C | 35% | - | 0 mm | - | 272 W/m² | - |
| 1777473301 | 22.22° C | 35% | - | 0 mm | - | 286 W/m² | - |
| 1777473001 | 22.22° C | 35% | - | 0 mm | - | 303 W/m² | - |
| 1777472701 | 22.22° C | 35% | - | 0 mm | - | 319 W/m² | - |
| 1777472401 | 22.22° C | 35% | - | 0 mm | - | 333 W/m² | - |
| 1777472100 | 22.78° C | 34% | - | 0 mm | - | 351 W/m² | - |
| 1777471801 | 22.22° C | 33% | - | 0 mm | - | 367 W/m² | - |
| 1777471500 | 22.22° C | 33% | - | 0 mm | - | 382 W/m² | - |
| 1777471200 | 22.78° C | 32% | - | 0 mm | - | 398 W/m² | - |
| 1777470900 | 22.78° C | 32% | - | 0 mm | - | 415 W/m² | - |
* Rain latest hour (hover to see other rain measurements)
** Current wind speed in m/s (hover to see current wind gust speed)